This demonstration page uses our WeatherBlox Daily Observations layout. Learn more.

Left ArrowRight Arrow

38.89511, -77.03637

Hourly Observations for May 31, 2018

Temp ( °F °C ) Dew Point ( °F °C ) Humidity (%) Winds ( mph kmh ) Pressure ( in mb ) Visibility ( mi km ) Precip ( " mm )
12:13 am 00:13 Cloudy 72 22.2 68 20 87 87 E 8 13 30.03 1017 7 11 0.00 0.00
12:23 am 00:23 Cloudy with Light Rain 71 21.7 68 20 90 90 E 12 19 30.03 1017 4 6 0.00 0.03
12:52 am 00:52 Cloudy with Mist and Fog 71 21.7 68 20 90 90 E 8 13 30.01 1016 3 5 0.00 0.03
1:32 am 01:32 Cloudy with Drizzle 70 21.1 68 20 93 93 E 8 13 30.00 1016 4 6 0.00 0.03
1:52 am 01:52 Cloudy with Drizzle 70 21.1 67 19.4 90 90 ESE 8 13 29.99 1016 4 6 0.00 0.03
2:21 am 02:21 Cloudy with Drizzle 70 21.1 67 19.4 90 90 E 8 13 30.00 1016 3 5 0.00 0.03
2:52 am 02:52 Cloudy with Drizzle 70 21.1 67 19.4 90 90 E 7 11 29.99 1016 3 5 0.00 0.03
3:52 am 03:52 Cloudy with Drizzle 70 21.1 67 19.4 90 90 SE 8 13 29.99 1016 3 5 0.00 0.03
4:52 am 04:52 Cloudy with Mist and Fog 70 21.1 67 19.4 90 90 ESE 6 9 29.98 1015 4 6 0.00 0.03
5:52 am 05:52 Cloudy with Mist and Fog 70 21.1 67 19.4 90 90 E 7 11 29.98 1015 4 6 0.00 0.00
6:36 am 06:36 Cloudy with Mist and Fog 70 21.1 67 19.4 90 90 E 5 7 29.97 1015 3 4 0.00 0.00
6:50 am 06:50 Cloudy with Mist and Fog 70 21 66 19 88 88 ENE 5 7 30.00 1016 3 4 0.00 0.00
6:52 am 06:52 Cloudy with Mist and Fog 70 21.1 67 19.4 90 90 ENE 6 9 29.98 1015 3 4 0.00 0.00
7:52 am 07:52 Cloudy with Mist and Fog 71 21.7 68 20 90 90 E 5 7 29.99 1016 3 4 0.00 0.00
8:00 am 08:00 Cloudy with Mist and Fog 71 21.7 68 20 90 90 E 5 7 30.00 1016 3 4 0.00 0.00
8:52 am 08:52 Cloudy with Mist and Fog 72 22.2 69 20.6 91 91 SE 5 7 29.98 1015 4 6 0.00 0.00
9:52 am 09:52 Cloudy 75 23.9 70 21.1 84 84 SSE 7 11 29.98 1015 7 11 0.00 0.00
10:50 am 10:50 Cloudy 75 24 72 22 89 89 S 5 7 29.97 1015 8 13 0.00 0.00
10:52 am 10:52 Cloudy 76 24.4 71 21.7 85 85 S 5 7 29.98 1015 8 13 0.00 0.00
11:52 am 11:52 Cloudy 78 25.6 72 22.2 82 82 S 8 13 29.97 1015 10 16 0.00 0.00
12:01 pm 12:01 Cloudy 78 25.6 72 22.2 82 82 S 8 13 29.97 1015 10 16 0.00 0.00
12:52 pm 12:52 Cloudy with Drizzle 77 25 73 22.8 88 88 S 7 11 29.96 1015 5 8 0.00 0.03
1:18 pm 13:18 Cloudy 80 26.7 74 23.3 82 82 SSE 7 11 29.94 1014 10 16 0.00 0.03
1:52 pm 13:52 Cloudy 82 27.8 73 22.8 74 74 S 6 9 29.93 1014 10 16 0.00 0.03
2:52 pm 14:52 Mostly Cloudy 85 29.4 73 22.8 68 68 S 9 15 29.90 1013 10 16 0.00 0.00
3:52 pm 15:52 Mostly Cloudy 84 28.9 72 22.2 67 67 S 8 13 29.88 1012 10 16 0.00 0.00
4:52 pm 16:52 Mostly Cloudy 85 29.4 72 22.2 65 65 S 8 13 29.86 1011 10 16 0.00 0.00
5:52 pm 17:52 Mostly Cloudy 83 28.3 72 22.2 70 70 S 12 19 29.85 1011 10 16 0.00 0.00
6:10 pm 18:10 Cloudy 82 27.8 71 21.7 69 69 SSE 12 19 29.85 1011 10 16 0.00 0.00
6:20 pm 18:20 Cloudy with Thunderstorms 82 27.8 71 21.7 69 69 S 9 15 29.85 1011 10 16 0.00 0.03
6:39 pm 18:39 Cloudy with Thunderstorms 80 26.7 73 22.8 79 79 SSW 7 11 29.88 1012 10 16 0.00 0.03
6:52 pm 18:52 Cloudy with Thunderstorms 76 24.4 70 21.1 82 82 NW 12 19 29.87 1012 9 14 0.01 0.25
7:01 pm 19:01 Cloudy with Thunderstorms 75 23.9 70 21.1 84 84 WNW 12 19 29.88 1012 10 16 0.00 0.03
7:13 pm 19:13 Cloudy with Strong Thunderstorms 75 23.9 69 20.6 82 82 WNW 17 28 29.88 1012 4 6 0.02 0.51
7:17 pm 19:17 Cloudy with Strong Thunderstorms 74 23.3 69 20.6 85 85 WNW 15 24 29.88 1012 1 2 0.10 2.54
7:24 pm 19:24 Cloudy with Strong Thunderstorms 74 23.3 70 21.1 88 88 SSW 17 28 29.91 1013 1 1 0.28 7.11
7:31 pm 19:31 Cloudy with Strong Thunderstorms 73 22.8 70 21.1 90 90 WSW 8 13 29.88 1012 1 1 0.71 18.03
7:37 pm 19:37 Cloudy with Strong Thunderstorms 73 22.8 71 21.7 94 94 S 6 9 29.88 1012 1 1 1.00 25.40
7:44 pm 19:44 Cloudy with Strong Thunderstorms 73 22.8 71 21.7 94 94 SSW 6 9 29.88 1012 2 2 1.18 29.97
7:52 pm 19:52 Cloudy with Strong Thunderstorms 73 22.8 70 21.1 90 90 SSW 7 11 29.88 1012 5 8 1.24 31.50
8:10 pm 20:10 Cloudy with Thunderstorms 73 22.8 71 21.7 94 94 S 13 20 29.88 1012 10 16 0.02 0.51
8:30 pm 20:30 Cloudy with Light Rain 72 22.2 69 20.6 91 91 S 7 11 29.88 1012 10 16 0.04 1.02
8:41 pm 20:41 Cloudy with Light Rain 72 22.2 69 20.6 91 91 S 7 11 29.88 1012 10 16 0.04 1.02
8:44 pm 20:44 Cloudy with Nearby Thunderstorms 72 22.2 69 20.6 91 91 S 6 9 29.88 1012 10 16 0.04 1.02
8:52 pm 20:52 Mostly Cloudy with Nearby Thunderstorms 72 22.2 69 20.6 91 91 S 7 11 29.88 1012 10 16 0.04 1.02
9:00 pm 21:00 Mostly Cloudy with Thunderstorms 73 22.8 69 20.6 87 87 SSE 7 11 29.88 1012 10 16 0.00 0.00
9:18 pm 21:18 Partly Cloudy with Nearby Thunderstorms 73 22.8 69 20.6 87 87 E 3 6 29.88 1012 10 16 0.00 0.03
9:25 pm 21:25 Partly Cloudy with Thunderstorms 73 22.8 69 20.6 87 87 E 6 9 29.88 1012 10 16 0.00 0.03
9:40 pm 21:40 Cloudy with Light Rain 73 22.8 69 20.6 87 87 ENE 6 9 29.88 1012 10 16 0.00 0.03
9:52 pm 21:52 Cloudy with Nearby Thunderstorms 73 22.8 69 20.6 87 87 E 3 6 29.87 1012 10 16 0.00 0.03
10:08 pm 22:08 Cloudy with Light Rain 73 22.8 69 20.6 87 87 WSW 5 7 29.88 1012 10 16 0.00 0.03
10:30 pm 22:30 Cloudy with Nearby Thunderstorms 73 22.8 70 21.1 90 90 SW 9 15 29.88 1012 10 16 0.02 0.51
10:43 pm 22:43 Cloudy with Light Rain 73 22.8 70 21.1 90 90 S 6 9 29.88 1012 10 16 0.03 0.76
10:52 pm 22:52 Cloudy with Thunderstorms 73 22.8 70 21.1 90 90 SSE 6 9 29.86 1011 10 16 0.03 0.76
11:00 pm 23:00 Cloudy with Thunderstorms 73 22.8 69 20.6 87 87 SE 5 7 29.85 1011 10 16 0.00 0.03
11:15 pm 23:15 Cloudy with Thunderstorms 72 22.2 69 20.6 91 91 SSW 7 11 29.88 1012 10 16 0.00 0.03
11:27 pm 23:27 Cloudy 73 22.8 69 20.6 87 87 S 6 9 29.88 1012 10 16 0.00 0.03
11:52 pm 23:52 Cloudy 73 22.8 70 21.1 90 90 S 5 7 29.88 1012 10 16 0.00 0.03

Powered by AerisWeather